{"data":{"norad_id":62184,"intl_designator":"2024-225X","name":"STARLINK-32581","alt_names":[],"object_type":"PAYLOAD","status":"ACTIVE","operator":null,"country":"US","launch_date":"2024-11-30","launch_site_code":"AFWTR","launch_vehicle":null,"mission":null,"orbit_class":"UNKNOWN","rcs_meters":null,"size_class":null,"mass_kg":null,"dimensions":null,"purposes":["comms"],"wikipedia_slug":null,"has_3d_model":false,"image_url":null,"decayed_at":null,"tle_current":{"epoch":"2026-05-24T21:45:06.042816Z","epoch_age_seconds":83477,"freshness":"FRESH","line1":"1 62184U 24225X   26144.90631994 -.00001331  00000+0 -10381-3 0  9999","line2":"2 62184  70.0019 322.1946 0002270 266.2851  93.8048 14.98339716 81549","mean_motion":14.98339716,"eccentricity":0.000227,"inclination_deg":70.0019,"raan_deg":322.1946,"arg_perigee_deg":266.2851,"mean_anomaly_deg":93.8048,"bstar":-0.00010381,"rev_number":8154,"period_min":96.106375918824,"perigee_km":570.4481582124,"apogee_km":573.60353214411,"semimajor_km":6950.1628451783,"source":"CELESTRAK","updated_at":"2026-05-25T13:38:19.605149Z"}}}